Погода в Космаче

Украина / Ивано-Франковская область     48°19′39″N   24°50′20″E
темп.,
°C
ветер,
м/с
пор.,
м/с
влажн.,
%
обл.,
%
осадки,
мм/ч
давл.,
гПа
погр.,
м
27 ноября, сб
сб2723:00+2ююз2895100 0.2 995412
02:00+3юз51891100 0.8 9931416
05:00+4юз71985100 0.1 9921499
08:00+3юз51789100 0.1 9941379
11:00+3ююз1791100 0.2 998605
14:00+3ююз2694100 0.6 999517
17:00+3юз3985100 0.1 1001748
20:00+1юз2395100 0.1 100284
28 ноября, вс
вс2823:000юз3395100 0.0 100483
02:00+1ююз2288100 0.0 100241
05:00+1ююз3489100 0.0 100260
08:00+3ююз2290100 0.1 100139
11:00+5ююз2782100 0.1 999501
14:00+6ююз2784100 0.4 998682
17:00+2ю2394100 0.0 99957
20:00+2ю2493100 0.0 99869
29 ноября, пн
пн2923:00+3ююз2388100 0.0 99651
02:00+3ююз2284100 0.0 99334
05:00+3ююз2292100 0.1 991110
08:00+3зюз2893100 0.4 991737
11:00+2зюз298497 0.3 9941042
14:00+3з3106775 0.3 9941187
17:00−2зюз129341 0.0 99832
20:00−3з119733 0.1 100032
30 ноября, вт
вт3023:00−3зюз129420 0.0 100194
02:00−3зюз119317 0.0 100445
05:00−3юз1190100 0.0 100480
08:00−3з1286100 0.0 1006204
11:00−1зсз116698 0.0 1007748
14:00−1зсз235999 0.1 10061052
17:00−4зюз22765 0.0 100849
20:00−5юз26866 0.0 1008310
1 декабря, ср
ср123:00−4зюз81769100 0.0 10061034
02:00−3зюз112271100 0.1 10031110
05:00−3зюз91770100 0.3 1004970
08:00−3зюз41372100 0.4 1006743
11:00−1зюз4116535 0.1 10081141
14:000з5116793 0.1 10081062
17:00−3юз348798 0.1 1009104
20:00−2юз3109098 0.1 1008408